Weather History for PHBK - December, 2013

Change the Weather History Date:

Friday, December 13, 2013

  Actual Average Record
Temperature  
Mean Temperature 74 °F -  
Max Temperature 81 °F 81 °F 88 °F (1977)
Min Temperature 68 °F 63 °F 58 °F (1950)
Cooling Degree Days 10    
Growing Degree Days 24 (Base 50)    
Moisture  
Dew Point 66 °F    
Average Humidity 75    
Maximum Humidity 87    
Minimum Humidity 61    
Precipitation  
Precipitation 0.00 in - - ()
Sea Level Pressure  
Sea Level Pressure 30.02 in    
Wind  
Wind Speed 3 mph (ESE)    
Max Wind Speed 8 mph    
Max Gust Speed 16 mph    
Visibility 10 miles    
Events      
Averages and records for this station are not official NWS values.
T = Trace of Precipitation, MM = Missing Value Source: NWS Daily Summary

Daily Weather History Graph

Daily Weather History Graph

Search for Another Location

Airport or City:

Trip Planner

Search our weather history database for the weather conditions in past years. The results will help you decide how hot, cold, wet, or windy it might be!

Date:

Astronomy

Dec. 13, 2013 Rise Set
Actual Time 7:09 AM HST 5:57 PM HST
Civil Twilight 6:45 AM HST 6:22 PM HST
Nautical Twilight 6:17 AM HST 6:49 PM HST
Astronomical Twilight 5:49 AM HST 7:17 PM HST
Moon 3:33 PM HST (12/13) 4:00 AM HST (12/13)
Length of Visible Light 11h 37m
Length of Day
10h 48m
Waxing Gibbous, 89% of the Moon is Illuminated
Dec 13
Waxing Gibbous
Dec 16
Full
Dec 25
Last Quarter
Jan 1
New
Jan 7
First Quarter

Hourly Weather History & Observations

Time (HST) Temp. Heat Index Dew Point Humidity Pressure Visibility Wind Dir Wind Speed Gust Speed Precip Events Conditions
12:56 AM 69.1 °F - 62.1 °F 78% 30.04 in 10.0 mi East 3.5 mph - N/A   Clear
1:56 AM 72.0 °F - 63.0 °F 73% 30.04 in 10.0 mi Calm Calm - N/A   Overcast
2:56 AM 72.0 °F - 66.0 °F 81% 30.03 in 10.0 mi East 4.6 mph - N/A   Overcast
3:56 AM 72.0 °F - 66.0 °F 81% 30.02 in 10.0 mi East 4.6 mph - N/A   Overcast
4:56 AM 72.0 °F - 66.9 °F 84% 30.02 in 10.0 mi Calm Calm - N/A   Overcast
5:56 AM 72.0 °F - 64.9 °F 78% 30.01 in 10.0 mi Calm Calm - N/A   Scattered Clouds
6:56 AM 71.1 °F - 63.0 °F 75% 30.01 in 10.0 mi Calm Calm - N/A   Clear
7:56 AM 68.0 °F - 64.0 °F 87% 30.04 in 10.0 mi Calm Calm - N/A   Clear
8:56 AM 75.0 °F - 66.0 °F 73% 30.05 in 10.0 mi Calm Calm - N/A   Clear
9:56 AM 80.1 °F 82.3 °F 66.9 °F 64% 30.06 in 10.0 mi East 3.5 mph 16.1 mph N/A   Clear
10:35 AM 80.6 °F 82.7 °F 66.2 °F 61% 30.05 in 10.0 mi SE 6.9 mph - N/A   Mostly Cloudy
10:43 AM 80.6 °F 82.7 °F 66.2 °F 61% 30.05 in 10.0 mi SE 5.8 mph - N/A   Mostly Cloudy
10:56 AM 81.0 °F 83.8 °F 68.0 °F 65% 30.06 in 10.0 mi Variable 6.9 mph - N/A   Mostly Cloudy
11:56 AM 79.0 °F - 66.9 °F 66% 30.03 in 10.0 mi NNW 8.1 mph - N/A   Overcast
12:56 PM 80.1 °F 82.7 °F 68.0 °F 67% 30.00 in 10.0 mi NNW 3.5 mph - N/A   Overcast
1:56 PM 80.1 °F 82.7 °F 68.0 °F 67% 29.97 in 10.0 mi Variable 4.6 mph - N/A   Overcast
2:56 PM 79.0 °F - 69.1 °F 72% 29.96 in 10.0 mi SSE 5.8 mph - N/A   Partly Cloudy
3:56 PM 78.1 °F - 69.1 °F 74% 29.98 in 10.0 mi SSE 4.6 mph - N/A   Clear
4:56 PM 78.1 °F - 70.0 °F 76% 29.99 in 10.0 mi South 3.5 mph - N/A   Clear
5:56 PM 75.9 °F - 69.1 °F 79% 30.00 in 10.0 mi SE 3.5 mph - N/A   Clear
6:56 PM 73.9 °F - 68.0 °F 82% 30.01 in 10.0 mi SE 3.5 mph - N/A   Clear
7:56 PM 73.9 °F - 68.0 °F 82% 30.02 in 10.0 mi Calm Calm - N/A   Clear
8:56 PM 72.0 °F - 66.0 °F 81% 30.03 in 10.0 mi East 4.6 mph - N/A   Clear
9:56 PM 72.0 °F - 66.0 °F 81% 30.03 in 10.0 mi Calm Calm - N/A   Clear
10:56 PM 70.0 °F - 64.9 °F 84% 30.03 in 10.0 mi Calm Calm - N/A   Clear
11:56 PM 69.1 °F - 64.0 °F 84% 30.01 in 10.0 mi East 3.5 mph - N/A   Clear